Powrót do katalogu

FENGYUN 1C DEB

AktywnySSO
NORAD 37429·DEBRIS·🇨🇳 China

Wystrzelony May 10, 1999 z Taiyuan Satellite Launch Center

Loading…

Następne Przeloty (najbliższe 24 godziny)

TLE

Starzejące sięSource: Space-Track

Epoka: Sep 10, 2026, 04:19 UTC

1 37429U 99025EGX 26253.18047653  .00000531  00000-0  30967-3 0  9999
2 37429  98.6619 238.0093 0102575 308.8038  50.4007 14.10016285669118

Śledź FENGYUN 1C DEB w czasie rzeczywistym z AllMySat

Download on the App Store